Time,TemperatureF,DewpointF,PressureIn,WindDirection,WindDirectionDegrees,WindSpeedMPH,WindSpeedGustMPH,Humidity,HourlyPrecipIn,Conditions,Clouds,dailyrainin,SoftwareType,DateUTC
2013-03-26 00:08:00,29.2,14.0,30.23,WNW,290,2.0,-999.0,54,-99.99,,,0.00,weatherlink.com 1.10,2013-03-26 05:08:00,
2013-03-26 00:23:00,29.0,14.0,30.23,WNW,290,1.0,-999.0,54,-99.99,,,0.00,weatherlink.com 1.10,2013-03-26 05:23:00,
2013-03-26 00:38:00,28.6,14.0,30.23,WNW,290,3.0,-999.0,55,-99.99,,,0.00,weatherlink.com 1.10,2013-03-26 05:38:00,
2013-03-26 00:53:00,28.1,13.0,30.23,West,277,3.0,-999.0,54,-99.99,,,0.00,weatherlink.com 1.10,2013-03-26 05:53:00,
2013-03-26 01:08:00,27.9,13.0,30.23,WSW,250,3.0,-999.0,54,-99.99,,,0.00,weatherlink.com 1.10,2013-03-26 06:08:00,
2013-03-26 01:23:00,27.4,13.0,30.23,West,277,1.0,-999.0,54,-99.99,,,0.00,weatherlink.com 1.10,2013-03-26 06:23:00,
2013-03-26 01:38:00,26.6,13.0,30.24,West,271,1.0,-999.0,56,-99.99,,,0.00,weatherlink.com 1.10,2013-03-26 06:38:00,
2013-03-26 01:53:00,26.0,13.0,30.24,West,278,1.0,-999.0,57,-99.99,,,0.00,weatherlink.com 1.10,2013-03-26 06:53:00,
2013-03-26 02:08:00,25.8,12.0,30.24,West,281,3.0,-999.0,57,-99.99,,,0.00,weatherlink.com 1.10,2013-03-26 07:08:00,
2013-03-26 02:23:00,25.9,13.0,30.24,WNW,284,1.0,-999.0,58,-99.99,,,0.00,weatherlink.com 1.10,2013-03-26 07:23:00,
2013-03-26 02:38:00,25.9,13.0,30.24,WNW,283,2.0,-999.0,59,-99.99,,,0.00,weatherlink.com 1.10,2013-03-26 07:38:00,
2013-03-26 02:53:00,25.7,13.0,30.24,West,277,2.0,-999.0,60,-99.99,,,0.00,weatherlink.com 1.10,2013-03-26 07:53:00,
2013-03-26 03:08:00,25.1,14.0,30.24,West,277,0.0,-999.0,62,-99.99,,,0.00,weatherlink.com 1.10,2013-03-26 08:08:00,
2013-03-26 03:24:00,24.8,14.0,30.24,West,277,0.0,-999.0,64,-99.99,,,0.00,weatherlink.com 1.10,2013-03-26 08:24:00,
2013-03-26 03:39:00,24.5,14.0,30.24,West,280,0.0,-999.0,64,-99.99,,,0.00,weatherlink.com 1.10,2013-03-26 08:39:00,
2013-03-26 03:54:00,23.6,14.0,30.24,West,280,1.0,-999.0,67,-99.99,,,0.00,weatherlink.com 1.10,2013-03-26 08:54:00,
2013-03-26 04:09:00,22.9,14.0,30.24,West,280,0.0,-999.0,69,-99.99,,,0.00,weatherlink.com 1.10,2013-03-26 09:09:00,
2013-03-26 04:24:00,21.7,14.0,30.24,West,280,0.0,-999.0,71,-99.99,,,0.00,weatherlink.com 1.10,2013-03-26 09:24:00,
2013-03-26 04:39:00,20.7,13.0,30.24,West,280,0.0,-999.0,73,-99.99,,,0.00,weatherlink.com 1.10,2013-03-26 09:39:00,
2013-03-26 04:54:00,20.1,13.0,30.24,West,280,2.0,-999.0,74,-99.99,,,0.00,weatherlink.com 1.10,2013-03-26 09:54:00,
2013-03-26 05:09:00,19.6,13.0,30.24,West,280,0.0,-999.0,75,-99.99,,,0.00,weatherlink.com 1.10,2013-03-26 10:09:00,
2013-03-26 05:24:00,18.6,13.0,30.25,West,280,2.0,-999.0,77,-99.99,,,0.00,weatherlink.com 1.10,2013-03-26 10:24:00,
2013-03-26 05:39:00,18.0,12.0,30.25,West,280,0.0,-999.0,77,-99.99,,,0.00,weatherlink.com 1.10,2013-03-26 10:39:00,
2013-03-26 05:54:00,17.3,12.0,30.25,West,280,0.0,-999.0,78,-99.99,,,0.00,weatherlink.com 1.10,2013-03-26 10:54:00,
2013-03-26 06:09:00,17.1,11.0,30.25,West,280,0.0,-999.0,78,-99.99,,,0.00,weatherlink.com 1.10,2013-03-26 11:09:00,
2013-03-26 06:24:00,17.0,12.0,30.26,West,280,1.0,-999.0,79,-99.99,,,0.00,weatherlink.com 1.10,2013-03-26 11:24:00,
2013-03-26 06:39:00,16.5,11.0,30.26,West,280,0.0,-999.0,79,-99.99,,,0.00,weatherlink.com 1.10,2013-03-26 11:39:00,
2013-03-26 06:54:00,15.7,10.0,30.26,West,280,0.0,-999.0,79,-99.99,,,0.00,weatherlink.com 1.10,2013-03-26 11:54:00,
2013-03-26 07:09:00,15.5,10.0,30.27,West,280,0.0,-999.0,80,-99.99,,,0.00,weatherlink.com 1.10,2013-03-26 12:09:00,
2013-03-26 07:24:00,15.0,10.0,30.27,West,280,0.0,-999.0,80,-99.99,,,0.00,weatherlink.com 1.10,2013-03-26 12:24:00,
2013-03-26 07:39:00,14.7,10.0,30.27,West,280,0.0,-999.0,80,-99.99,,,0.00,weatherlink.com 1.10,2013-03-26 12:39:00,
2013-03-26 07:54:00,15.1,10.0,30.27,West,280,2.0,-999.0,80,-99.99,,,0.00,weatherlink.com 1.10,2013-03-26 12:54:00,
2013-03-26 08:09:00,15.8,11.0,30.28,West,280,1.0,-999.0,80,-99.99,,,0.00,weatherlink.com 1.10,2013-03-26 13:09:00,
2013-03-26 08:24:00,16.2,11.0,30.28,West,280,1.0,-999.0,79,-99.99,,,0.00,weatherlink.com 1.10,2013-03-26 13:24:00,
2013-03-26 08:39:00,16.6,11.0,30.28,West,280,3.0,-999.0,78,-99.99,,,0.00,weatherlink.com 1.10,2013-03-26 13:39:00,
2013-03-26 08:54:00,17.2,11.0,30.28,West,280,2.0,-999.0,78,-99.99,,,0.00,weatherlink.com 1.10,2013-03-26 13:54:00,
2013-03-26 09:09:00,18.3,12.0,30.28,West,266,3.0,-999.0,76,-99.99,,,0.00,weatherlink.com 1.10,2013-03-26 14:09:00,
2013-03-26 09:24:00,19.0,12.0,30.28,West,259,2.0,-999.0,74,-99.99,,,0.00,weatherlink.com 1.10,2013-03-26 14:24:00,
2013-03-26 09:39:00,19.6,12.0,30.28,WSW,249,4.0,-999.0,73,-99.99,,,0.00,weatherlink.com 1.10,2013-03-26 14:39:00,
2013-03-26 09:54:00,20.7,13.0,30.28,WSW,248,2.0,-999.0,71,-99.99,,,0.00,weatherlink.com 1.10,2013-03-26 14:54:00,
2013-03-26 10:09:00,22.5,13.0,30.28,WSW,248,3.0,-999.0,68,-99.99,,,0.00,weatherlink.com 1.10,2013-03-26 15:09:00,
2013-03-26 10:24:00,23.8,14.0,30.28,WSW,248,2.0,-999.0,66,-99.99,,,0.00,weatherlink.com 1.10,2013-03-26 15:24:00,
2013-03-26 10:39:00,25.0,14.0,30.28,WSW,248,3.0,-999.0,63,-99.99,,,0.00,weatherlink.com 1.10,2013-03-26 15:39:00,
2013-03-26 10:54:00,27.0,15.0,30.28,WSW,248,3.0,-999.0,62,-99.99,,,0.00,weatherlink.com 1.10,2013-03-26 15:54:00,
2013-03-26 11:10:00,29.4,17.0,30.28,West,267,2.0,-999.0,59,-99.99,,,0.00,weatherlink.com 1.10,2013-03-26 16:10:00,
2013-03-26 11:25:00,30.3,17.0,30.28,West,261,4.0,-999.0,57,-99.99,,,0.00,weatherlink.com 1.10,2013-03-26 16:25:00,
2013-03-26 11:40:00,31.4,17.0,30.28,WSW,257,6.0,-999.0,56,-99.99,,,0.00,weatherlink.com 1.10,2013-03-26 16:40:00,
2013-03-26 11:55:00,32.1,18.0,30.27,WSW,238,4.0,-999.0,56,-99.99,,,0.00,weatherlink.com 1.10,2013-03-26 16:55:00,
2013-03-26 12:10:00,33.7,18.0,30.27,West,267,1.0,-999.0,52,-99.99,,,0.00,weatherlink.com 1.10,2013-03-26 17:10:00,
2013-03-26 12:25:00,34.8,18.0,30.27,WNW,296,2.0,-999.0,50,-99.99,,,0.00,weatherlink.com 1.10,2013-03-26 17:25:00,
2013-03-26 12:40:00,35.3,18.0,30.27,West,273,6.0,-999.0,50,-99.99,,,0.00,weatherlink.com 1.10,2013-03-26 17:40:00,
2013-03-26 12:55:00,36.1,18.0,30.26,West,265,7.0,-999.0,49,-99.99,,,0.00,weatherlink.com 1.10,2013-03-26 17:55:00,
2013-03-26 13:10:00,36.4,17.0,30.26,NW,304,1.0,-999.0,46,-99.99,,,0.00,weatherlink.com 1.10,2013-03-26 18:10:00,
2013-03-26 13:25:00,37.3,19.0,30.26,WSW,241,3.0,-999.0,47,-99.99,,,0.00,weatherlink.com 1.10,2013-03-26 18:25:00,
2013-03-26 13:40:00,37.0,19.0,30.26,West,260,0.0,-999.0,48,-99.99,,,0.00,weatherlink.com 1.10,2013-03-26 18:40:00,
2013-03-26 13:55:00,38.2,17.0,30.25,West,270,0.0,-999.0,43,-99.99,,,0.00,weatherlink.com 1.10,2013-03-26 18:55:00,
2013-03-26 14:10:00,38.2,17.0,30.25,WSW,248,6.0,-999.0,43,-99.99,,,0.00,weatherlink.com 1.10,2013-03-26 19:10:00,
2013-03-26 14:25:00,37.6,17.0,30.25,WSW,257,2.0,-999.0,44,-99.99,,,0.00,weatherlink.com 1.10,2013-03-26 19:25:00,
2013-03-26 14:40:00,37.6,18.0,30.25,West,265,4.0,-999.0,46,-99.99,,,0.00,weatherlink.com 1.10,2013-03-26 19:40:00,
2013-03-26 14:55:00,38.5,17.0,30.24,West,265,7.0,-999.0,42,-99.99,,,0.00,weatherlink.com 1.10,2013-03-26 19:55:00,
2013-03-26 15:10:00,38.0,17.0,30.24,NNE,26,1.0,-999.0,42,-99.99,,,0.00,weatherlink.com 1.10,2013-03-26 20:10:00,
2013-03-26 15:25:00,37.0,16.0,30.24,NNE,26,1.0,-999.0,43,-99.99,,,0.00,weatherlink.com 1.10,2013-03-26 20:25:00,
2013-03-26 15:40:00,37.2,16.0,30.24,WNW,288,0.0,-999.0,43,-99.99,,,0.00,weatherlink.com 1.10,2013-03-26 20:40:00,
2013-03-26 15:55:00,37.3,16.0,30.24,West,269,4.0,-999.0,42,-99.99,,,0.00,weatherlink.com 1.10,2013-03-26 20:55:00,
2013-03-26 16:10:00,37.3,17.0,30.24,WNW,288,2.0,-999.0,43,-99.99,,,0.00,weatherlink.com 1.10,2013-03-26 21:10:00,
2013-03-26 16:25:00,37.0,16.0,30.23,WNW,288,2.0,-999.0,42,-99.99,,,0.00,weatherlink.com 1.10,2013-03-26 21:25:00,
2013-03-26 16:40:00,37.2,16.0,30.23,WNW,297,0.0,-999.0,43,-99.99,,,0.00,weatherlink.com 1.10,2013-03-26 21:40:00,
2013-03-26 16:55:00,37.1,16.0,30.23,WNW,297,1.0,-999.0,43,-99.99,,,0.00,weatherlink.com 1.10,2013-03-26 21:55:00,
2013-03-26 17:10:00,37.0,16.0,30.23,NW,326,1.0,-999.0,43,-99.99,,,0.00,weatherlink.com 1.10,2013-03-26 22:10:00,
2013-03-26 17:25:00,37.0,16.0,30.24,NNE,21,3.0,-999.0,43,-99.99,,,0.00,weatherlink.com 1.10,2013-03-26 22:25:00,
2013-03-26 17:40:00,36.9,16.0,30.24,NNE,13,0.0,-999.0,43,-99.99,,,0.00,weatherlink.com 1.10,2013-03-26 22:40:00,
2013-03-26 17:55:00,36.7,17.0,30.24,NNE,15,2.0,-999.0,45,-99.99,,,0.00,weatherlink.com 1.10,2013-03-26 22:55:00,
2013-03-26 18:10:00,36.5,17.0,30.24,NNE,22,1.0,-999.0,45,-99.99,,,0.00,weatherlink.com 1.10,2013-03-26 23:10:00,
2013-03-26 18:25:00,36.4,17.0,30.24,NNE,14,0.0,-999.0,46,-99.99,,,0.00,weatherlink.com 1.10,2013-03-26 23:25:00,
2013-03-26 18:40:00,36.2,18.0,30.24,NNE,15,3.0,-999.0,47,-99.99,,,0.00,weatherlink.com 1.10,2013-03-26 23:40:00,
2013-03-26 18:55:00,35.9,17.0,30.24,NNE,15,4.0,-999.0,46,-99.99,,,0.00,weatherlink.com 1.10,2013-03-26 23:55:00,
2013-03-26 19:10:00,35.6,17.0,30.24,NNE,15,0.0,-999.0,47,-99.99,,,0.00,weatherlink.com 1.10,2013-03-27 00:10:00,
2013-03-26 19:25:00,35.2,18.0,30.24,NNE,15,0.0,-999.0,50,-99.99,,,0.00,weatherlink.com 1.10,2013-03-27 00:25:00,
2013-03-26 19:40:00,34.8,18.0,30.24,NNE,15,0.0,-999.0,51,-99.99,,,0.00,weatherlink.com 1.10,2013-03-27 00:40:00,
2013-03-26 19:55:00,34.2,19.0,30.25,NNE,15,0.0,-999.0,55,-99.99,,,0.00,weatherlink.com 1.10,2013-03-27 00:55:00,
2013-03-26 20:10:00,33.5,18.0,30.25,NNE,15,0.0,-999.0,53,-99.99,,,0.00,weatherlink.com 1.10,2013-03-27 01:10:00,
2013-03-26 20:25:00,32.9,19.0,30.25,NNE,15,0.0,-999.0,56,-99.99,,,0.00,weatherlink.com 1.10,2013-03-27 01:25:00,
2013-03-26 20:40:00,32.5,19.0,30.25,NNE,15,0.0,-999.0,58,-99.99,,,0.00,weatherlink.com 1.10,2013-03-27 01:40:00,
2013-03-26 20:55:00,32.2,20.0,30.25,NNE,15,0.0,-999.0,60,-99.99,,,0.00,weatherlink.com 1.10,2013-03-27 01:55:00,
2013-03-26 21:10:00,31.8,22.0,30.25,NNE,15,0.0,-999.0,68,-99.99,,,0.00,weatherlink.com 1.10,2013-03-27 02:10:00,
2013-03-26 21:25:00,31.5,20.0,30.25,NNE,15,0.0,-999.0,63,-99.99,,,0.00,weatherlink.com 1.10,2013-03-27 02:25:00,
2013-03-26 21:40:00,31.5,22.0,30.25,NNE,15,0.0,-999.0,67,-99.99,,,0.00,weatherlink.com 1.10,2013-03-27 02:40:00,
2013-03-26 21:55:00,31.2,23.0,30.25,NNE,15,0.0,-999.0,72,-99.99,,,0.00,weatherlink.com 1.10,2013-03-27 02:55:00,
2013-03-26 22:10:00,31.2,21.0,30.26,NNE,15,0.0,-999.0,67,-99.99,,,0.00,weatherlink.com 1.10,2013-03-27 03:10:00,
2013-03-26 22:25:00,31.1,22.0,30.26,NNE,15,0.0,-999.0,68,-99.99,,,0.00,weatherlink.com 1.10,2013-03-27 03:25:00,
2013-03-26 22:40:00,31.1,21.0,30.26,NNE,15,0.0,-999.0,65,-99.99,,,0.00,weatherlink.com 1.10,2013-03-27 03:40:00,
2013-03-26 22:55:00,30.7,21.0,30.26,NNE,15,0.0,-999.0,68,-99.99,,,0.00,weatherlink.com 1.10,2013-03-27 03:55:00,
2013-03-26 23:10:00,30.6,22.0,30.26,NNE,15,0.0,-999.0,69,-99.99,,,0.00,weatherlink.com 1.10,2013-03-27 04:10:00,
2013-03-26 23:25:00,30.4,21.0,30.26,NNE,15,0.0,-999.0,69,-99.99,,,0.00,weatherlink.com 1.10,2013-03-27 04:25:00,
2013-03-26 23:40:00,30.6,22.0,30.26,NNE,15,0.0,-999.0,71,-99.99,,,0.00,weatherlink.com 1.10,2013-03-27 04:40:00,
2013-03-26 23:55:00,30.6,23.0,30.26,NNE,15,0.0,-999.0,72,-99.99,,,0.00,weatherlink.com 1.10,2013-03-27 04:55:00,